Regional Weather Roundup
Issued by NWS Upton, NY

Home | Current Version | Previous Version | Text Only | Print | Product List | Glossary On
Versions: 1 2 3 4 5 6 7 8 9 10 11 12 13 14 15 16 17 18 19 20 21 22 23 24 25 26 27 28 29 30 31 32 33 34 35 36 37 38 39 40 41 42 43 44 45 46 47 48 49 50
000
ASUS41 KOKX 281905
RWROKX

REGIONAL WEATHER ROUNDUP
NATIONAL WEATHER SERVICE NEW YORK NY
200 PM EST FRI NOV 28 2014

NOTE: "FAIR" INDICATES FEW OR NO CLOUDS BELOW 12,000 FEET WITH NO
SIGNIFICANT WEATHER AND/OR OBSTRUCTIONS TO VISIBILITY.

NYZ071-072-176-178-NJZ106-104-282000-
NEW YORK CITY METRO AREA


CITY           SKY/WX    TMP DP  RH WIND       PRES   REMARKS
CENTRAL PARK   PTSUNNY   36  17  46 VRB7G18   30.18R WCI  30
LAGUARDIA APRT PTSUNNY   36  19  51 NW13G29   30.16R WCI  27
KENNEDY INTL   PTSUNNY   38  18  44 NW16G22   30.17R WCI  29
NEWARK/LIBERTY MOSUNNY   36  17  46 NW18G24   30.17S WCI  26
BRNX BOT. GARD   N/A    N/A N/A N/A N10       30.16R
TETERBORO      SUNNY     35  17  47 NW15      30.16R WCI  25
$$

NYZ177-179-078>081-282000-
LONG ISLAND NEW YORK

CITY           SKY/WX    TMP DP  RH WIND       PRES   REMARKS
FARMINGDALE    PTSUNNY   38  19  46 NW14G22   30.14R WCI  30
ISLIP          PTSUNNY   37  19  48 NW17G25   30.11R WCI  27
SHIRLEY        PTSUNNY   39  20  46 NW14G22   30.12R WCI  31
WESTHAMPTON    MOSUNNY   39  20  46 NW14G25   30.12R WCI  31
MONTAUK POINT    N/A     39  19  44 NW14      30.09R WCI  31
$$

NYZ052-065-067-282000-
HUDSON VALLEY

CITY           SKY/WX    TMP DP  RH WIND       PRES   REMARKS
WHITE PLAINS   MOSUNNY   34  18  52 W15G24    30.12R WCI  24
NEWBURGH       PTSUNNY   32  21  64 NW12G23   30.14S WCI  23
MONTGOMERY     PTSUNNY   32  15  49 W10G23    30.14R WCI  24
POUGHKEEPSIE   CLOUDY    34  18  52 W10       30.15R WCI  26
ALBANY         PTSUNNY   29  17  61 NW17G28   30.15R WCI  17
$$

NJZ001-105-106-008-010-013-015-019>022-104-282000-
NEW JERSEY

CITY           SKY/WX    TMP DP  RH WIND       PRES   REMARKS
NEWARK/LIBERTY MOSUNNY   36  17  46 NW18G24   30.17S WCI  26
TETERBORO      SUNNY     35  17  47 NW15      30.16R WCI  25
CALDWELL       PTSUNNY   35  16  45 NW15G24   30.17S WCI  25
MORRISTOWN     MOSUNNY   34  18  51 NW13G24   30.18R WCI  25
SOMERVILLE     FAIR      35  15  44 NW14G24   30.18R WCI  26
SUSSEX         MOSUNNY   30  13  49 W9        30.17R WCI  22
ANDOVER          N/A     29  14  53 MISG      30.17S
TRENTON        SUNNY     36  15  42 NW12G22   30.19S WCI  28
MILLVILLE      MOSUNNY   39  15  37 NW13G23   30.21S WCI  31
ATLANTIC CITY  CLOUDY    37  20  50 NW15      30.19S WCI  28
WRIGHTSTOWN    MOSUNNY   36  14  41 NW16      30.17S WCI  26
TOMS RIVER     MOSUNNY   37  16  41 NW10G18   30.18S WCI  30
BELMAR         PTSUNNY   36  16  44 NW15      30.17R WCI  26
$$

PAZ047>061-062-071-282000-
EASTERN PENNSYLVANIA

CITY           SKY/WX    TMP DP  RH WIND       PRES   REMARKS
PHILADELPHIA   MOSUNNY   37  14  38 NW18G28   30.23R WCI  27
ALLENTOWN      MOSUNNY   32  14  47 NW14      30.20F WCI  22
SCRANTON       PTSUNNY   29  13  51 N10G20    30.18S WCI  20
$$

CTZ002-004>006-009-010-012-RIZ004-006-007-MAZ004-011-015-282000-
SOUTHERN NEW ENGLAND
 IN CT

CITY           SKY/WX    TMP DP  RH WIND       PRES   REMARKS
BRADLEY INTL   MOSUNNY   36  18  48 N12       30.09S WCI  28
HARTFORD       PTSUNNY   35  18  49 NW12G20   30.11S WCI  27
DANBURY        PTSUNNY   33  17  51 W8        30.12S WCI  26
WTRBRY/OXFORD  PTSUNNY   32  16  51 N12G17    30.09S WCI  23
BRIDGEPORT     SUNNY     39  18  42 NW17      30.12S WCI  30
MERIDEN        MOSUNNY   36  18  48 NW16      30.11R WCI  26
NEW HAVEN      PTSUNNY   40  18  41 NW12G18   30.11R WCI  33
CHESTER        FAIR      34  19  55 NW17G24   30.09R WCI  23
GROTON         SUNNY     37  18  46 N16G23    30.08R WCI  28
WILLIMANTIC    PTSUNNY   36  17  46 NW13G22   30.09R WCI  27

 IN RI

CITY           SKY/WX    TMP DP  RH WIND       PRES   REMARKS
PROVIDENCE     MOSUNNY   37  20  50 NW12G24   30.06S WCI  29
BLOCK ISLAND   MOSUNNY   37  19  48 NW16G24   30.05S WCI  28
WESTERLY       SUNNY     37  18  46 NW17G25   30.07S WCI  27

 IN MA

CITY           SKY/WX    TMP DP  RH WIND       PRES   REMARKS
BOSTON         MOSUNNY   34  20  56 NW13G23   30.07R WCI  25
WORCESTER      MOSUNNY   29  20  69 NW16      30.02R WCI  17
WESTFIELD      MOSUNNY   33  18  53 NW13      30.09S WCI  24
PROVINCETOWN   CLOUDY    34  27  75 NW16G24   30.05R WCI  23
NANTUCKET      LGT SNOW  34  27  75 NW20G29   30.03R WCI  23
$$

ANZ330-335-338-340-345-350-353-355-282000-
COASTAL MARINE OBSERVATIONS


STATION/POSITION TIME  SKY/WX   TEMP    WIND        PRES    VSBY  WAVE
                                AIR SEA DIR/SP/G                  HT/PER
                 (UTC)          (F)     (DEG/KT/KT) (MB)    (MI)  (FT/S)
NY HARB ENTRANCE 1900            37 54  290/ 17/ 25 1021.2          3/ 4
4S FIRE IS       1900               52                N/A           3/ 4
20S FIRE ISLAND  1900            38 53  320/ 19/ 27 1019.9          4/ 5
23SW MTP         1900                                 N/A           4/ 5
HUDSON CANYON    1900            40 58  320/ 19/ 27 1019.3          6/ 6
EXECUTION ROCKS  1900            38 47  280/ 16/ 23   N/A
WESTERN LI SOUND 1900            37     290/ 19/ 25   N/A           1/ 3
CENTRAL LI SOUND 1800            37 50  330/ 16/ 19   N/A           2/ 4
EASTERN LI SOUND 1800            39 51  330/ 16/ 27   N/A
ROBBINS REEF     1900            35     300/ 18/ 22 1020.3
$$


>>>>>>>>>>>>>>>>>>>>>>>>>>>> KEY <<<<<<<<<<<<<<<<<<<<<<<<<<<
>                                                          <
>     SKY/WX - SKY CONDITION/PRESENT WEATHER               <
>     TMP    - TEMPERATURE IN FAHRENHEIT                   <
>     DP     - DEWPOINT IN FAHRENHEIT                      <
>     RH     - RELATIVE HUMIDITY IN PERCENT                <
>     WIND   - DIRECTION AND SPEED IN MPH                  <
>     PRES   - MEAN SEA LEVEL PRESSURE IN INCHES OF HG     <
>     WCI    - WIND CHILL INDEX                            <
>     VSB    - VISIBILITY IN MILES                         <
>     HX     - HEAT INDEX                                  <
>     TC     - TEMPERATURE IN CELSIUS                      <
>     VRB    - VARIABLE WIND DIRECTION                     <
>                                                          <
>>>>>>>>>>>>>>>>>>>>>>>>>>>> KEY <<<<<<<<<<<<<<<<<<<<<<<<<<<





USA.gov is the U.S. government's official web portal to all federal, state and local government web resources and services.